Location: Korczew
(51.3586°N, 19.4491°E)
Time: 06:37:34
(UTC+00:00)

Cosmos 1975 - Pass Details

Date: 19 May 2025
Orbit: 487 x 506 km, 82.5° (Epoch: 16 June)

Event Time Altitude Azimuth Distance (km) Brightness Sun altitude
Rises 21:09:42 0° 353° (N) 2,577 7.8 -16.0°
Reaches altitude 10° 21:11:52 10° 359° (N) 1,689 6.4 -16.2°
Maximum altitude 21:15:28 49° 75° (ENE) 637 3.0 -16.4°
Enters shadow 21:16:43 33° 130° (SE) 835 3.3 -16.4°
